Retour au catalogue

OSCAR 29

ActifRadio amateurPO
NORAD 18362·PAYLOAD·🇺🇸 United States

Lancé Sep 16, 1987 depuis Vandenberg Space Force Base

Loading…

Prochains Passages (prochaines 24 heures)

TLE

FraisSource: Space-Track

Époque: Sep 14, 2026, 12:07 UTC

1 18362U 87080B   26257.50553954  .00000056  00000-0  78424-4 0  9991
2 18362  90.3626  89.9099 0105290 177.3663 199.8688 13.44489504912151

Suivez OSCAR 29 en temps réel avec AllMySat

Download on the App Store